CFMGP CYVO-CYHU

Flight info

Callsign CFMGP
Flight time 0h 56m
Altitude 25000
Route TAGET Q911 PIGNA
Aircraft B350/L-SBGRWY/S

Departure

Time 2026-05-06 13:20
Airport Val-d'Or Airport (CYVO)

Arrival

Time 2026-05-06 14:16
Airport Montréal / Saint-Hubert Metropolitan Airport (CYHU)
Time Latitude Longitude Altitude Speed Heading
2026-05-06 11:45 48.05274 -77.78655 1107 ft 0 kts 27°
2026-05-06 13:15 48.05285 -77.78625 1104 ft 11 kts 81°
2026-05-06 13:16 48.05304 -77.78472 1105 ft 18 kts 77°
2026-05-06 13:16 48.05341 -77.78288 1099 ft 19 kts 30°
2026-05-06 13:16 48.05460 -77.78304 1102 ft 16 kts 355°
2026-05-06 13:16 48.05574 -77.78337 1101 ft 20 kts 348°
2026-05-06 13:17 48.05750 -77.78390 1103 ft 30 kts 345°
2026-05-06 13:17 48.05941 -77.78460 1107 ft 26 kts 348°
2026-05-06 13:17 48.06103 -77.78485 1110 ft 22 kts 352°
2026-05-06 13:17 48.06249 -77.78525 1105 ft 20 kts 351°
2026-05-06 13:18 48.06378 -77.78564 1109 ft 18 kts 346°
2026-05-06 13:18 48.06504 -77.78588 1105 ft 18 kts 356°
2026-05-06 13:18 48.06621 -77.78616 1104 ft 15 kts 354°
2026-05-06 13:18 48.06636 -77.78647 1104 ft 7 kts 164°
2026-05-06 13:19 48.06631 -77.78645 1104 ft 0 kts 167°
2026-05-06 13:19 48.06329 -77.78553 1110 ft 90 kts 169°
2026-05-06 13:19 48.05566 -77.78327 1344 ft 130 kts 173°
2026-05-06 13:20 48.04539 -77.78054 1699 ft 157 kts 172°
2026-05-06 13:20 48.03653 -77.77096 2443 ft 169 kts 128°
2026-05-06 13:20 48.03075 -77.75521 3020 ft 176 kts 118°
2026-05-06 13:20 48.02478 -77.73917 3616 ft 178 kts 125°
2026-05-06 13:21 48.01778 -77.72379 4227 ft 181 kts 130°
2026-05-06 13:21 48.01006 -77.70871 4848 ft 183 kts 133°
2026-05-06 13:21 48.00197 -77.69388 5472 ft 185 kts 134°
2026-05-06 13:21 47.99365 -77.67908 6085 ft 187 kts 136°
2026-05-06 13:22 47.98514 -77.66419 6666 ft 189 kts 136°
2026-05-06 13:22 47.97655 -77.64924 7249 ft 191 kts 136°
2026-05-06 13:22 47.96784 -77.63415 7830 ft 193 kts 136°
2026-05-06 13:22 47.95906 -77.61894 8436 ft 195 kts 136°
2026-05-06 13:23 47.95017 -77.60357 9027 ft 197 kts 136°
2026-05-06 13:23 47.94117 -77.58800 9618 ft 199 kts 136°
2026-05-06 13:23 47.93208 -77.57230 10165 ft 201 kts 137°
2026-05-06 13:23 47.92303 -77.55667 10688 ft 203 kts 137°
2026-05-06 13:24 47.91372 -77.54062 11229 ft 204 kts 137°
2026-05-06 13:24 47.90438 -77.52449 11775 ft 206 kts 138°
2026-05-06 13:24 47.89494 -77.50822 12313 ft 208 kts 138°
2026-05-06 13:24 47.88542 -77.49182 12861 ft 210 kts 139°
2026-05-06 13:25 47.87584 -77.47530 13455 ft 212 kts 139°
2026-05-06 13:25 47.86616 -77.45865 14015 ft 213 kts 140°
2026-05-06 13:25 47.85654 -77.44213 14556 ft 214 kts 140°
2026-05-06 13:25 47.84672 -77.42525 15108 ft 216 kts 140°
2026-05-06 13:26 47.83687 -77.40833 15665 ft 217 kts 141°
2026-05-06 13:26 47.82693 -77.39129 16210 ft 219 kts 141°
2026-05-06 13:26 47.81692 -77.37412 16754 ft 220 kts 142°
2026-05-06 13:26 47.80685 -77.35686 17280 ft 221 kts 142°
2026-05-06 13:27 47.79673 -77.33951 17822 ft 223 kts 143°
2026-05-06 13:27 47.78653 -77.32204 18317 ft 225 kts 143°
2026-05-06 13:27 47.77618 -77.30438 18721 ft 228 kts 144°
2026-05-06 13:27 47.76569 -77.28648 19148 ft 231 kts 145°
2026-05-06 13:28 47.75509 -77.26839 19575 ft 233 kts 146°
2026-05-06 13:28 47.74450 -77.25035 20054 ft 236 kts 147°
2026-05-06 13:28 47.73363 -77.23182 20529 ft 239 kts 148°
2026-05-06 13:28 47.72262 -77.21303 20993 ft 242 kts 149°
2026-05-06 13:29 47.71145 -77.19406 21441 ft 246 kts 150°
2026-05-06 13:29 47.70014 -77.17485 21908 ft 248 kts 150°
2026-05-06 13:29 47.68871 -77.15543 22365 ft 251 kts 151°
2026-05-06 13:29 47.67710 -77.13573 22795 ft 254 kts 151°
2026-05-06 13:30 47.66539 -77.11584 23235 ft 257 kts 152°
2026-05-06 13:30 47.65356 -77.09575 23629 ft 259 kts 152°
2026-05-06 13:30 47.64173 -77.07557 24008 ft 259 kts 152°
2026-05-06 13:30 47.62988 -77.05538 24394 ft 259 kts 152°
2026-05-06 13:31 47.61801 -77.03520 24763 ft 261 kts 152°
2026-05-06 13:31 47.60559 -77.01450 24807 ft 276 kts 152°
2026-05-06 13:31 47.59257 -76.99310 24830 ft 290 kts 150°
2026-05-06 13:31 47.57885 -76.97034 24827 ft 301 kts 149°
2026-05-06 13:32 47.56480 -76.94675 24838 ft 310 kts 148°
2026-05-06 13:32 47.55041 -76.92239 24836 ft 317 kts 148°
2026-05-06 13:32 47.53577 -76.89755 24834 ft 323 kts 147°
2026-05-06 13:32 47.52089 -76.87229 24837 ft 327 kts 147°
2026-05-06 13:33 47.50586 -76.84681 24835 ft 330 kts 147°
2026-05-06 13:33 47.49067 -76.82110 24832 ft 333 kts 146°
2026-05-06 13:33 47.47539 -76.79530 24837 ft 334 kts 146°
2026-05-06 13:33 47.46057 -76.77035 24834 ft 336 kts 146°
2026-05-06 13:34 47.44514 -76.74440 24833 ft 336 kts 146°
2026-05-06 13:34 47.42966 -76.71841 24832 ft 337 kts 146°
2026-05-06 13:34 47.41417 -76.69243 24833 ft 337 kts 146°
2026-05-06 13:34 47.39882 -76.66677 24835 ft 338 kts 146°
2026-05-06 13:35 47.38328 -76.64081 24835 ft 338 kts 146°
2026-05-06 13:35 47.36771 -76.61482 24841 ft 338 kts 146°
2026-05-06 13:35 47.35208 -76.58879 24836 ft 338 kts 146°
2026-05-06 13:35 47.33647 -76.56279 24839 ft 338 kts 146°
2026-05-06 13:36 47.32087 -76.53685 24841 ft 338 kts 146°
2026-05-06 13:36 47.30526 -76.51094 24836 ft 338 kts 145°
2026-05-06 13:36 47.28962 -76.48498 24842 ft 338 kts 145°
2026-05-06 13:36 47.27401 -76.45906 24842 ft 338 kts 145°
2026-05-06 13:37 47.25833 -76.43310 24840 ft 338 kts 145°
2026-05-06 13:37 47.24270 -76.40723 24842 ft 338 kts 145°
2026-05-06 13:37 47.22704 -76.38136 24840 ft 338 kts 145°
2026-05-06 13:37 47.21143 -76.35554 24838 ft 338 kts 145°
2026-05-06 13:38 47.19580 -76.32974 24840 ft 337 kts 145°
2026-05-06 13:38 47.18020 -76.30402 24838 ft 337 kts 145°
2026-05-06 13:38 47.16481 -76.27864 24838 ft 336 kts 145°
2026-05-06 13:38 47.14924 -76.25302 24838 ft 336 kts 145°
2026-05-06 13:39 47.13369 -76.22747 24842 ft 336 kts 145°
2026-05-06 13:39 47.11811 -76.20189 24841 ft 335 kts 145°
2026-05-06 13:39 47.10253 -76.17633 24839 ft 335 kts 145°
2026-05-06 13:39 47.08694 -76.15079 24839 ft 335 kts 145°
2026-05-06 13:40 47.07142 -76.12535 24837 ft 335 kts 145°
2026-05-06 13:40 47.05585 -76.09990 24840 ft 334 kts 145°
2026-05-06 13:40 47.04030 -76.07451 24843 ft 334 kts 145°
2026-05-06 13:40 47.02478 -76.04917 24841 ft 334 kts 145°
2026-05-06 13:41 47.00926 -76.02384 24843 ft 333 kts 145°
2026-05-06 13:41 46.99395 -75.99888 24841 ft 333 kts 145°
2026-05-06 13:41 46.97847 -75.97368 24847 ft 333 kts 145°
2026-05-06 13:41 46.96299 -75.94849 24842 ft 333 kts 145°
2026-05-06 13:42 46.94748 -75.92330 24837 ft 332 kts 145°
2026-05-06 13:42 46.93202 -75.89816 24841 ft 332 kts 145°
2026-05-06 13:42 46.91655 -75.87307 24846 ft 331 kts 145°
2026-05-06 13:42 46.90110 -75.84804 24848 ft 331 kts 145°
2026-05-06 13:43 46.88568 -75.82307 24843 ft 331 kts 145°
2026-05-06 13:43 46.87025 -75.79812 24846 ft 331 kts 145°
2026-05-06 13:43 46.85486 -75.77322 24847 ft 330 kts 145°
2026-05-06 13:43 46.83945 -75.74831 24850 ft 330 kts 145°
2026-05-06 13:44 46.82408 -75.72348 24846 ft 330 kts 145°
2026-05-06 13:44 46.80869 -75.69864 24848 ft 329 kts 145°
2026-05-06 13:44 46.79349 -75.67413 24851 ft 329 kts 145°
2026-05-06 13:44 46.77811 -75.64935 24850 ft 329 kts 145°
2026-05-06 13:45 46.76273 -75.62464 24845 ft 329 kts 145°
2026-05-06 13:45 46.73198 -75.57524 24847 ft 328 kts 145°
2026-05-06 13:45 46.71664 -75.55061 24849 ft 328 kts 145°
2026-05-06 13:46 46.70133 -75.52605 24848 ft 327 kts 145°
2026-05-06 13:46 46.68604 -75.50154 24848 ft 326 kts 145°
2026-05-06 13:46 46.67081 -75.47715 24845 ft 323 kts 145°
2026-05-06 13:46 46.66082 -75.46114 24838 ft 322 kts 145°
2026-05-06 13:47 46.64561 -75.43689 24629 ft 326 kts 145°
2026-05-06 13:47 46.63031 -75.41229 24408 ft 329 kts 145°
2026-05-06 13:47 46.61475 -75.38770 24196 ft 331 kts 145°
2026-05-06 13:47 46.59910 -75.36301 23983 ft 333 kts 144°
2026-05-06 13:48 46.58343 -75.33814 23771 ft 334 kts 144°
2026-05-06 13:48 46.56770 -75.31313 23558 ft 335 kts 144°
2026-05-06 13:48 46.55196 -75.28808 23344 ft 335 kts 144°
2026-05-06 13:48 46.53623 -75.26303 23086 ft 336 kts 144°
2026-05-06 13:49 46.52045 -75.23794 22838 ft 336 kts 144°
2026-05-06 13:49 46.50472 -75.21299 22589 ft 335 kts 144°
2026-05-06 13:49 46.48894 -75.18801 22342 ft 335 kts 144°
2026-05-06 13:49 46.47322 -75.16313 22103 ft 334 kts 144°
2026-05-06 13:50 46.45750 -75.13828 21864 ft 334 kts 144°
2026-05-06 13:50 46.44198 -75.11376 21627 ft 334 kts 144°
2026-05-06 13:50 46.42628 -75.08900 21388 ft 333 kts 144°
2026-05-06 13:50 46.41059 -75.06428 21156 ft 332 kts 144°
2026-05-06 13:51 46.39494 -75.03966 20919 ft 332 kts 144°
2026-05-06 13:51 46.37932 -75.01508 20691 ft 332 kts 144°
2026-05-06 13:51 46.36367 -74.99048 20462 ft 331 kts 144°
2026-05-06 13:51 46.34801 -74.96592 20231 ft 331 kts 144°
2026-05-06 13:52 46.33243 -74.94145 20012 ft 330 kts 144°
2026-05-06 13:52 46.31684 -74.91704 19790 ft 330 kts 144°
2026-05-06 13:52 46.30128 -74.89270 19571 ft 329 kts 143°
2026-05-06 13:52 46.28570 -74.86837 19345 ft 329 kts 143°
2026-05-06 13:53 46.27036 -74.84442 19126 ft 328 kts 143°
2026-05-06 13:53 46.25489 -74.82026 18913 ft 327 kts 143°
2026-05-06 13:53 46.23940 -74.79612 18695 ft 327 kts 143°
2026-05-06 13:53 46.22394 -74.77206 18484 ft 326 kts 143°
2026-05-06 13:54 46.20852 -74.74809 18218 ft 326 kts 143°
2026-05-06 13:54 46.19298 -74.72400 17879 ft 328 kts 143°
2026-05-06 13:54 46.17736 -74.69980 17534 ft 330 kts 143°
2026-05-06 13:54 46.16167 -74.67548 17089 ft 332 kts 143°
2026-05-06 13:55 46.14580 -74.65097 16598 ft 336 kts 142°
2026-05-06 13:55 46.12981 -74.62623 16093 ft 338 kts 142°
2026-05-06 13:55 46.11379 -74.60140 15610 ft 339 kts 142°
2026-05-06 13:55 46.09788 -74.57685 15159 ft 339 kts 142°
2026-05-06 13:56 46.08178 -74.55197 14697 ft 338 kts 142°
2026-05-06 13:56 46.06600 -74.52756 14228 ft 328 kts 142°
2026-05-06 13:56 46.05065 -74.50386 13775 ft 318 kts 143°
2026-05-06 13:56 46.03454 -74.48282 13286 ft 306 kts 151°
2026-05-06 13:57 46.01784 -74.46424 12754 ft 303 kts 150°
2026-05-06 13:57 46.00150 -74.44512 12212 ft 303 kts 149°
2026-05-06 13:57 45.98527 -74.42591 11670 ft 301 kts 149°
2026-05-06 13:57 45.96909 -74.40677 11148 ft 300 kts 149°
2026-05-06 13:58 45.95298 -74.38781 10626 ft 300 kts 149°
2026-05-06 13:58 45.93673 -74.36883 10115 ft 299 kts 149°
2026-05-06 13:58 45.92082 -74.35030 9597 ft 298 kts 148°
2026-05-06 13:58 45.90470 -74.33149 9017 ft 297 kts 148°
2026-05-06 13:59 45.88868 -74.31284 8471 ft 296 kts 147°
2026-05-06 13:59 45.87260 -74.29426 7926 ft 296 kts 146°
2026-05-06 13:59 45.85667 -74.27563 7387 ft 296 kts 145°
2026-05-06 13:59 45.84067 -74.25699 6866 ft 296 kts 144°
2026-05-06 14:00 45.82486 -74.23862 6360 ft 297 kts 144°
2026-05-06 14:00 45.80876 -74.21997 5802 ft 297 kts 143°
2026-05-06 14:00 45.79274 -74.20141 5246 ft 295 kts 142°
2026-05-06 14:00 45.77710 -74.18326 5020 ft 281 kts 142°
2026-05-06 14:01 45.76200 -74.16567 5000 ft 279 kts 142°
2026-05-06 14:01 45.74832 -74.14620 4966 ft 279 kts 124°
2026-05-06 14:01 45.74274 -74.11988 4839 ft 280 kts 90°
2026-05-06 14:01 45.74333 -74.09216 4709 ft 278 kts 88°
2026-05-06 14:02 45.74319 -74.06457 4568 ft 276 kts 90°
2026-05-06 14:02 45.74289 -74.04631 4486 ft 276 kts 90°
2026-05-06 14:02 45.74272 -74.03646 4443 ft 275 kts 90°
2026-05-06 14:03 45.74217 -74.00906 4315 ft 275 kts 91°
2026-05-06 14:03 45.74143 -73.98216 4173 ft 274 kts 92°
2026-05-06 14:03 45.74059 -73.95461 4043 ft 273 kts 92°
2026-05-06 14:03 45.73968 -73.92783 3916 ft 273 kts 92°
2026-05-06 14:04 45.73873 -73.90071 3786 ft 272 kts 92°
2026-05-06 14:04 45.73776 -73.87370 3657 ft 272 kts 92°
2026-05-06 14:04 45.73678 -73.84669 3530 ft 271 kts 92°
2026-05-06 14:04 45.73579 -73.81967 3404 ft 271 kts 92°
2026-05-06 14:05 45.73482 -73.79369 3286 ft 271 kts 92°
2026-05-06 14:05 45.73383 -73.76675 3153 ft 271 kts 92°
2026-05-06 14:05 45.73281 -73.73989 3021 ft 270 kts 92°
2026-05-06 14:05 45.73181 -73.71318 3013 ft 266 kts 92°
2026-05-06 14:06 45.73083 -73.68688 3000 ft 264 kts 92°
2026-05-06 14:06 45.72983 -73.66100 2997 ft 262 kts 92°
2026-05-06 14:06 45.72884 -73.63505 2999 ft 261 kts 92°
2026-05-06 14:06 45.72785 -73.60916 2999 ft 260 kts 92°
2026-05-06 14:07 45.72684 -73.58343 2993 ft 259 kts 92°
2026-05-06 14:07 45.72584 -73.55768 2995 ft 259 kts 92°
2026-05-06 14:07 45.72480 -73.53197 2991 ft 258 kts 92°
2026-05-06 14:07 45.72377 -73.50630 2995 ft 258 kts 93°
2026-05-06 14:08 45.72278 -73.48134 2992 ft 242 kts 92°
2026-05-06 14:08 45.72196 -73.45800 2993 ft 228 kts 92°
2026-05-06 14:08 45.72114 -73.43588 2989 ft 217 kts 92°
2026-05-06 14:08 45.72032 -73.41461 2996 ft 211 kts 92°
2026-05-06 14:09 45.71952 -73.39393 2990 ft 206 kts 92°
2026-05-06 14:09 45.71872 -73.37363 3001 ft 205 kts 92°
2026-05-06 14:09 45.71784 -73.35316 3004 ft 212 kts 93°
2026-05-06 14:09 45.71692 -73.33190 2996 ft 216 kts 93°
2026-05-06 14:10 45.71569 -73.31031 2995 ft 219 kts 99°
2026-05-06 14:10 45.71070 -73.28972 2998 ft 221 kts 119°
2026-05-06 14:10 45.70129 -73.27238 2991 ft 221 kts 139°
2026-05-06 14:10 45.68973 -73.25804 2992 ft 219 kts 141°
2026-05-06 14:11 45.67715 -73.24617 2994 ft 215 kts 157°
2026-05-06 14:11 45.66311 -73.23975 2988 ft 208 kts 172°
2026-05-06 14:11 45.64894 -73.23875 2996 ft 201 kts 187°
2026-05-06 14:11 45.63537 -73.24268 2999 ft 197 kts 201°
2026-05-06 14:12 45.62338 -73.25074 2996 ft 188 kts 215°
2026-05-06 14:12 45.61341 -73.26208 2989 ft 179 kts 227°
2026-05-06 14:12 45.60516 -73.27480 2813 ft 166 kts 230°
2026-05-06 14:12 45.59745 -73.28648 2576 ft 159 kts 229°
2026-05-06 14:13 45.58994 -73.29785 2347 ft 155 kts 230°
2026-05-06 14:13 45.58265 -73.30907 2133 ft 153 kts 230°
2026-05-06 14:13 45.57544 -73.32014 1913 ft 152 kts 229°
2026-05-06 14:13 45.56827 -73.33103 1703 ft 146 kts 228°
2026-05-06 14:14 45.56213 -73.34032 1521 ft 133 kts 229°
2026-05-06 14:14 45.55601 -73.34975 1329 ft 127 kts 229°
2026-05-06 14:14 45.55014 -73.35874 1142 ft 124 kts 227°
2026-05-06 14:14 45.54431 -73.36758 958 ft 121 kts 227°
2026-05-06 14:15 45.53862 -73.37625 779 ft 118 kts 227°
2026-05-06 14:15 45.53305 -73.38477 621 ft 117 kts 227°
2026-05-06 14:15 45.52759 -73.39311 453 ft 109 kts 228°
2026-05-06 14:15 45.52263 -73.40070 242 ft 102 kts 226°
2026-05-06 14:16 45.51806 -73.40756 93 ft 83 kts 227°
2026-05-06 14:16 45.51621 -73.41036 93 ft 25 kts 228°
2026-05-06 14:16 45.51505 -73.41217 97 ft 23 kts 227°
2026-05-06 14:16 45.51420 -73.41233 95 ft 11 kts 139°
2026-05-06 14:17 45.51435 -73.41144 94 ft 12 kts 47°
2026-05-06 14:17 45.51495 -73.41053 95 ft 13 kts 47°
2026-05-06 14:17 45.51560 -73.40953 96 ft 14 kts 47°
2026-05-06 14:17 45.51612 -73.40850 94 ft 10 kts 121°
2026-05-06 14:18 45.51573 -73.40796 94 ft 8 kts 137°
2026-05-06 14:18 45.51556 -73.40732 94 ft 7 kts 76°
2026-05-06 14:18 45.51551 -73.40725 94 ft 0 kts 231°
2026-05-06 14:18 45.51513 -73.40799 94 ft 21 kts 233°
2026-05-06 14:19 45.51414 -73.40958 94 ft 19 kts 230°
2026-05-06 14:19 45.51387 -73.41009 95 ft 0 kts 232°
2026-05-06 14:19 45.51355 -73.41059 95 ft 11 kts 219°
2026-05-06 14:20 45.51320 -73.41078 94 ft 0 kts 159°
2026-05-06 14:20 45.51290 -73.41044 94 ft 19 kts 137°
2026-05-06 14:20 45.51320 -73.41081 94 ft 32 kts 306°
2026-05-06 14:20 45.51475 -73.41412 94 ft 36 kts 293°
2026-05-06 14:21 45.51531 -73.41731 96 ft 30 kts 290°
2026-05-06 14:21 45.51628 -73.42017 92 ft 35 kts 287°
2026-05-06 14:21 45.51686 -73.42304 94 ft 22 kts 303°
2026-05-06 14:21 45.51826 -73.42360 94 ft 24 kts 339°
2026-05-06 14:22 45.51911 -73.42296 94 ft 20 kts 73°
2026-05-06 14:22 45.52043 -73.42102 94 ft 29 kts 49°
2026-05-06 14:22 45.52164 -73.41913 94 ft 20 kts 45°
2026-05-06 14:22 45.52218 -73.41834 94 ft 20 kts 43°
2026-05-06 14:23 45.52309 -73.41913 94 ft 21 kts 315°
2026-05-06 14:23 45.52360 -73.41956 98 ft 6 kts 160°
2026-05-06 14:23 45.52142 -73.41611 94 ft 86 kts 118°
2026-05-06 14:23 45.51852 -73.40799 94 ft 72 kts 129°
2026-05-06 14:24 45.51684 -73.40564 95 ft 23 kts 158°
2026-05-06 14:24 45.51566 -73.40489 94 ft 8 kts 268°
2026-05-06 14:24 45.51593 -73.40463 96 ft 4 kts
2026-05-06 14:24 45.51654 -73.40499 94 ft 9 kts 41°
2026-05-06 14:25 45.51661 -73.40506 95 ft 0 kts 232°